• în România
  • Lista ţărilor
  • Pe 7 zile
  • Temperatura apei
  • Hartă satelitară
  • Meteo pe hartă
  • Widget-uri
  • user-avatar
    Intrare

    Meteo pe oră la Nha Trang

    Astăzi, 16 Octombrie, Marţi

    Timp Temperatura Precipitaţii Vânt Presiune Umiditate
    00:00 +25°C° 0 mm 1 m/s 749 mmHg 96%
    01:00 +25°C° 0 mm 1 m/s 749 mmHg 96%
    02:00 +25°C° 0 mm 1 m/s 749 mmHg 95%
    03:00 +25°C° 0 mm 2 m/s 749 mmHg 95%
    04:00 +24°C° 0 mm 2 m/s 748 mmHg 94%
    05:00 +25°C° 0 mm 2 m/s 748 mmHg 88%
    06:00 +26°C° 0 mm 2 m/s 749 mmHg 83%
    07:00 +28°C° 0 mm 1 m/s 749 mmHg 75%
    08:00 +30°C° 0 mm 2 m/s 749 mmHg 64%
    09:00 +34°C° 0 mm 2 m/s 749 mmHg 53%
    10:00 +36°C° 0 mm 2 m/s 749 mmHg 42%
    11:00 +36°C° 0 mm 2 m/s 748 mmHg 42%
    12:00 +37°C° 0 mm 2 m/s 748 mmHg 42%
    13:00 +37°C° 0 mm 3 m/s 747 mmHg 41%
    14:00 +36°C° 0 mm 3 m/s 747 mmHg 48%
    15:00 +34°C° 0 mm 3 m/s 747 mmHg 56%
    16:00 +33°C° 0 mm 3 m/s 746 mmHg 63%
    17:00 +30°C° 0 mm 2 m/s 747 mmHg 73%
    18:00 +28°C° 0 mm 2 m/s 747 mmHg 83%
    19:00 +26°C° 0 mm 1 m/s 747 mmHg 92%
    20:00 +26°C° 0 mm 1 m/s 748 mmHg 93%
    21:00 +26°C° 0 mm 1 m/s 748 mmHg 94%
    22:00 +26°C° 0 mm 1 m/s 749 mmHg 95%
    23:00 +26°C° 0 mm 1 m/s 748 mmHg 95%

    Mâine, 17 Octombrie, Miercuri

    Timp Temperatura Precipitaţii Vânt Presiune Umiditate
    00:00 +25°C° 0 mm 1 m/s 748 mmHg 94%
    01:00 +25°C° 0 mm 2 m/s 748 mmHg 94%
    02:00 +25°C° 0 mm 2 m/s 748 mmHg 93%
    03:00 +25°C° 0 mm 2 m/s 748 mmHg 93%
    04:00 +25°C° 0 mm 2 m/s 747 mmHg 92%
    05:00 +26°C° 0 mm 2 m/s 748 mmHg 88%
    06:00 +27°C° 0 mm 2 m/s 748 mmHg 83%
    07:00 +28°C° 0 mm 1 m/s 748 mmHg 79%
    08:00 +30°C° 0 mm 1 m/s 748 mmHg 68%
    09:00 +33°C° 0 mm 1 m/s 748 mmHg 57%
    10:00 +35°C° 0 mm 1 m/s 748 mmHg 47%
    11:00 +37°C° 0.1 mm 2 m/s 748 mmHg 47%
    12:00 +37°C° 0.1 mm 2 m/s 747 mmHg 47%
    13:00 +37°C° 0.1 mm 3 m/s 746 mmHg 48%
    14:00 +36°C° 0.1 mm 3 m/s 746 mmHg 54%
    15:00 +34°C° 0.1 mm 3 m/s 745 mmHg 60%
    16:00 +33°C° 0.1 mm 3 m/s 745 mmHg 66%
    17:00 +30°C° 0.1 mm 2 m/s 746 mmHg 75%
    18:00 +29°C° 0.1 mm 2 m/s 746 mmHg 84%
    19:00 +27°C° 0.1 mm 1 m/s 746 mmHg 93%
    20:00 +27°C° 0.2 mm 1 m/s 747 mmHg 94%
    21:00 +27°C° 0.2 mm 1 m/s 747 mmHg 94%
    22:00 +26°C° 0.2 mm 2 m/s 748 mmHg 94%
    23:00 +26°C° 0 mm 2 m/s 748 mmHg 94%

    Poimâine, 18 Octombrie, Joi

    Timp Temperatura Precipitaţii Vânt Presiune Umiditate
    00:00 +26°C° 0 mm 2 m/s 747 mmHg 94%
    01:00 +26°C° 0 mm 2 m/s 747 mmHg 94%
    02:00 +26°C° 0.5 mm 2 m/s 747 mmHg 94%
    03:00 +26°C° 0.5 mm 2 m/s 746 mmHg 93%
    04:00 +26°C° 0.5 mm 2 m/s 746 mmHg 93%
    05:00 +26°C° 0.4 mm 1 m/s 747 mmHg 90%
    06:00 +27°C° 0.4 mm 1 m/s 747 mmHg 87%
    07:00 +28°C° 0.4 mm 1 m/s 748 mmHg 84%
    08:00 +30°C° 0 mm 1 m/s 748 mmHg 74%
    09:00 +32°C° 0 mm 2 m/s 748 mmHg 65%
    10:00 +35°C° 0 mm 2 m/s 749 mmHg 55%
    11:00 +35°C° 0.1 mm 2 m/s 748 mmHg 55%
    12:00 +35°C° 0.1 mm 2 m/s 747 mmHg 54%
    13:00 +35°C° 0.1 mm 3 m/s 746 mmHg 54%
    14:00 +34°C° 0.2 mm 3 m/s 746 mmHg 59%
    15:00 +33°C° 0.2 mm 3 m/s 746 mmHg 64%
    16:00 +31°C° 0.2 mm 3 m/s 745 mmHg 70%
    17:00 +30°C° 0.4 mm 3 m/s 746 mmHg 77%
    18:00 +28°C° 0.4 mm 2 m/s 747 mmHg 84%
    19:00 +27°C° 0.4 mm 2 m/s 747 mmHg 92%
    20:00 +27°C° 0.6 mm 2 m/s 748 mmHg 92%
    21:00 +27°C° 0.6 mm 2 m/s 748 mmHg 92%
    22:00 +27°C° 0.6 mm 2 m/s 749 mmHg 92%
    23:00 +26°C° 0.4 mm 2 m/s 748 mmHg 91%

    19 Octombrie, Vineri

    Timp Temperatura Precipitaţii Vânt Presiune Umiditate
    00:00 +26°C° 0.4 mm 2 m/s 748 mmHg 91%
    01:00 +26°C° 0.4 mm 2 m/s 747 mmHg 91%
    02:00 +26°C° 0.1 mm 2 m/s 747 mmHg 90%
    03:00 +26°C° 0.1 mm 2 m/s 747 mmHg 90%
    04:00 +26°C° 0.1 mm 2 m/s 747 mmHg 90%
    05:00 +26°C° 0.1 mm 2 m/s 747 mmHg 87%
    06:00 +27°C° 0.1 mm 2 m/s 748 mmHg 84%
    07:00 +28°C° 0.1 mm 2 m/s 748 mmHg 81%
    08:00 +29°C° 0 mm 2 m/s 749 mmHg 72%
    09:00 +31°C° 0 mm 2 m/s 749 mmHg 64%
    10:00 +34°C° 0 mm 2 m/s 749 mmHg 56%
    11:00 +34°C° 0.3 mm 3 m/s 748 mmHg 55%
    12:00 +35°C° 0.3 mm 3 m/s 748 mmHg 53%
    13:00 +35°C° 0.3 mm 3 m/s 747 mmHg 52%
    14:00 +35°C° 0.2 mm 3 m/s 747 mmHg 56%
    15:00 +34°C° 0.2 mm 3 m/s 746 mmHg 60%
    16:00 +33°C° 0.2 mm 3 m/s 746 mmHg 64%
    17:00 +30°C° 0.6 mm 3 m/s 747 mmHg 73%
    18:00 +28°C° 0.6 mm 2 m/s 748 mmHg 81%
    19:00 +27°C° 0.6 mm 2 m/s 748 mmHg 89%
    20:00 +26°C° 0.8 mm 2 m/s 749 mmHg 90%
    21:00 +26°C° 0.8 mm 1 m/s 749 mmHg 91%
    22:00 +26°C° 0.8 mm 1 m/s 750 mmHg 93%
    23:00 +26°C° 0.3 mm 1 m/s 749 mmHg 92%

    20 Octombrie, Sâmbătă

    Timp Temperatura Precipitaţii Vânt Presiune Umiditate
    00:00 +26°C° 0.3 mm 1 m/s 749 mmHg 91%
    01:00 +26°C° 0.3 mm 1 m/s 748 mmHg 90%
    02:00 +25°C° 0 mm 2 m/s 748 mmHg 89%
    03:00 +25°C° 0 mm 2 m/s 748 mmHg 88%
    04:00 +25°C° 0 mm 2 m/s 748 mmHg 88%
    05:00 +26°C° 0 mm 2 m/s 748 mmHg 84%
    06:00 +27°C° 0 mm 2 m/s 749 mmHg 81%
    07:00 +28°C° 0 mm 1 m/s 750 mmHg 77%
    08:00 +30°C° 0 mm 2 m/s 750 mmHg 70%
    09:00 +32°C° 0 mm 2 m/s 750 mmHg 62%
    10:00 +35°C° 0 mm 2 m/s 750 mmHg 55%
    11:00 +35°C° 0 mm 2 m/s 749 mmHg 56%
    12:00 +35°C° 0 mm 3 m/s 748 mmHg 56%
    13:00 +35°C° 0 mm 3 m/s 747 mmHg 57%
    14:00 +34°C° 0.5 mm 3 m/s 747 mmHg 64%
    15:00 +33°C° 0.5 mm 3 m/s 747 mmHg 71%
    16:00 +31°C° 0.5 mm 3 m/s 747 mmHg 78%
    17:00 +29°C° 0.6 mm 2 m/s 748 mmHg 83%
    18:00 +28°C° 0.6 mm 2 m/s 749 mmHg 89%
    19:00 +27°C° 0.6 mm 1 m/s 749 mmHg 94%
    20:00 +26°C° 0.1 mm 1 m/s 749 mmHg 94%
    21:00 +26°C° 0.1 mm 1 m/s 750 mmHg 95%
    22:00 +26°C° 0.1 mm 1 m/s 750 mmHg 96%
    23:00 +26°C° 0 mm 1 m/s 749 mmHg 95%

    21 Octombrie, Duminică

    Timp Temperatura Precipitaţii Vânt Presiune Umiditate
    00:00 +25°C° 0 mm 1 m/s 749 mmHg 94%
    01:00 +25°C° 0 mm 1 m/s 749 mmHg 94%
    02:00 +25°C° 0 mm 1 m/s 749 mmHg 93%
    03:00 +25°C° 0 mm 1 m/s 749 mmHg 91%
    04:00 +24°C° 0 mm 1 m/s 748 mmHg 90%
    05:00 +25°C° 0 mm 1 m/s 749 mmHg 87%
    06:00 +26°C° 0 mm 1 m/s 749 mmHg 83%
    07:00 +27°C° 0 mm 1 m/s 750 mmHg 80%
    08:00 +29°C° 0 mm 1 m/s 750 mmHg 70%
    09:00 +32°C° 0 mm 2 m/s 750 mmHg 60%
    10:00 +35°C° 0 mm 2 m/s 750 mmHg 51%
    11:00 +36°C° 0 mm 2 m/s 749 mmHg 51%
    12:00 +36°C° 0 mm 2 m/s 748 mmHg 52%
    13:00 +36°C° 0 mm 3 m/s 747 mmHg 52%
    14:00 +35°C° 0.2 mm 3 m/s 747 mmHg 58%
    15:00 +34°C° 0.2 mm 3 m/s 747 mmHg 64%
    16:00 +33°C° 0.2 mm 3 m/s 747 mmHg 70%
    17:00 +30°C° 0.6 mm 2 m/s 747 mmHg 78%
    18:00 +28°C° 0.6 mm 2 m/s 748 mmHg 86%
    19:00 +27°C° 0.6 mm 2 m/s 748 mmHg 94%
    20:00 +26°C° 0.3 mm 2 m/s 748 mmHg 94%
    21:00 +26°C° 0.3 mm 2 m/s 749 mmHg 94%
    22:00 +26°C° 0.3 mm 2 m/s 749 mmHg 94%
    23:00 +26°C° 0 mm 2 m/s 749 mmHg 94%
    Arată mai mult